User: anonymous   Login
Location: Unspecified
(0.0000°N, 0.0000°E)
Time: 08:58:05
(UTC+02:00)
Language:

NATO 3D Rocket - Orbit

View from above orbital plane
View from above orbital plane
View from above satellite
View from above satellite

Ground track
Ground track

The orbit data is extracted from the following two-line orbital elements,

1 15392U 84115B   17229.74547225 +.00000228 +00000-0 +58767-4 0  9995
2 15392 021.4944 029.8298 1034405 168.0545 194.6463 12.45548452473906
Epoch (UTC): 17 August 2017 17:53:28
Eccentricity: 0.1034405
inclination: 21.4944°
perigee height: 670 km
apogee height: 2296 km
right ascension of ascending node: 29.8298°
argument of perigee: 168.0545°
revolutions per day: 12.45548452
mean anomaly at epoch: 194.6463°
orbit number at epoch: 47390

The dashed part of the orbit path shows where the satellite is in the earth's shadow,  

DLR